DateTimeUTC,F1_A11,F1_S11,BsB_S11,BsG_S11,BsR_S11,BbsB_S11,BbsG_S11,BbsR_S11,BaB_A11,BaG_A11,BaR_A11,Tu_S11,T_S11,Uu_S11,U_S11,P_S11,T1_A11
2021-08-12T04:00:00Z,00040200,20000000,,,,,,,-000.20,-000.24,-000.44,18.3,25.0,08.1,05.4,0673.8,31.0
2021-08-12T04:01:00Z,00040200,20000000,,,,,,,-000.16,0000.15,0000.07,18.3,25.0,08.1,05.4,0673.8,31.0
2021-08-12T04:02:00Z,00040200,20000000,,,,,,,0000.26,-000.32,-000.15,18.4,25.1,08.1,05.4,0673.8,31.0
2021-08-12T04:03:00Z,00040200,60000000,,,,,,,0000.47,0000.49,0000.13,18.4,25.1,08.1,05.4,0673.8,31.0
2021-08-12T04:04:00Z,00040200,40000000,0002.85,0001.74,0001.27,0000.88,0000.65,0000.40,0000.28,0000.24,0000.49,18.7,25.0,08.0,05.4,0674.7,31.0
2021-08-12T04:05:00Z,00040200,00000000,0002.71,0001.61,0001.16,0000.15,0000.46,0000.34,0000.10,0000.18,0000.21,18.7,25.0,08.0,05.4,0674.8,31.0
2021-08-12T04:06:00Z,00040200,00000000,0001.93,0001.77,0001.44,0000.12,0000.59,0000.34,0000.59,0000.74,0000.22,18.7,24.9,08.0,05.4,0674.8,31.0
2021-08-12T04:07:00Z,00040200,00000000,0002.18,0001.79,0001.23,0000.21,0000.49,0000.42,0000.34,0000.22,0000.36,18.6,24.9,07.9,05.4,0674.8,31.0
2021-08-12T04:08:00Z,00040200,00000000,0002.43,0001.52,0001.27,0000.57,0000.56,0000.26,0000.38,0000.14,-000.04,18.6,24.9,08.0,05.5,0674.8,31.0
2021-08-12T04:09:00Z,00040200,00000000,0002.00,0001.42,0001.09,0000.31,0000.28,0000.39,-000.02,0000.35,0000.44,18.6,24.8,08.0,05.4,0674.8,31.0
2021-08-12T04:10:00Z,00040200,00000000,0002.07,0001.41,0001.15,0000.16,0000.30,0000.16,0000.45,0000.73,0000.39,18.6,24.8,08.0,05.5,0674.8,31.0
2021-08-12T04:11:00Z,00040200,00000000,0002.50,0001.66,0000.86,0000.04,0000.14,-000.07,0000.63,0000.19,0000.41,18.5,24.8,08.0,05.4,0674.8,31.0
2021-08-12T04:12:00Z,00040200,00000000,0003.02,0001.59,0001.11,0000.03,0000.50,0000.30,0000.49,0000.37,0000.23,18.5,24.8,08.1,05.5,0674.8,31.0
2021-08-12T04:13:00Z,00040200,00000000,0001.78,0001.39,0000.89,0000.05,0000.42,0000.56,0000.68,0000.49,0000.16,18.5,24.8,08.0,05.5,0674.8,31.0
2021-08-12T04:14:00Z,00040200,00000000,0001.24,0001.57,0000.85,0000.43,0000.25,0000.37,-000.11,0000.10,0000.25,18.6,24.8,08.0,05.5,0674.8,31.0
2021-08-12T04:15:00Z,00040200,00000000,0000.87,0001.45,0000.40,0000.65,0000.27,-000.04,0000.62,0000.58,0000.55,18.7,24.9,08.0,05.5,0674.8,31.0
2021-08-12T04:16:00Z,00040200,00000000,0002.28,0001.23,0000.98,0000.96,0000.38,0000.17,0000.32,0000.09,0000.12,18.8,24.9,08.0,05.5,0674.8,31.0
2021-08-12T04:17:00Z,00040200,00000000,0001.67,0001.12,0001.05,0000.60,0000.36,0000.24,0000.05,0000.28,-000.08,18.8,25.0,07.9,05.4,0674.8,31.0
2021-08-12T04:18:00Z,00040200,00000000,0001.39,0001.05,0000.51,0000.76,0000.23,0000.35,0000.21,-000.15,0000.07,18.8,24.9,07.9,05.4,0674.8,31.0
2021-08-12T04:19:00Z,00040200,00000000,0001.80,0001.27,0001.13,0000.03,0000.36,0000.47,0000.61,0000.28,0000.27,18.8,24.9,07.9,05.4,0674.9,31.0
2021-08-12T04:20:00Z,00040200,00000000,0002.15,0001.14,0000.76,-000.28,0000.41,0000.34,-000.42,-000.08,0000.42,18.8,24.9,07.8,05.3,0674.9,31.0
2021-08-12T04:21:00Z,00040200,00000000,0001.81,0001.40,0000.65,-000.24,0000.24,0000.42,0000.56,0000.26,0000.07,18.7,24.9,07.8,05.4,0674.9,31.0
2021-08-12T04:22:00Z,00040200,00000000,0001.51,0001.18,0000.60,0000.07,0000.24,0000.27,0000.34,0000.11,0000.02,18.7,24.9,07.8,05.3,0674.9,31.0
2021-08-12T04:23:00Z,00040200,00000000,0002.00,0001.07,0000.65,0000.60,0000.26,0000.33,-000.25,0000.72,0000.39,18.6,24.9,07.9,05.4,0674.9,31.0
2021-08-12T04:24:00Z,00040200,00000000,0001.79,0000.89,0000.30,-000.17,0000.35,0000.24,0000.42,0000.17,0000.15,18.6,24.9,08.0,05.4,0674.9,31.0
2021-08-12T04:25:00Z,00040200,00000000,0001.16,0001.08,0000.69,0000.33,0000.60,0000.46,0000.40,0000.03,-000.16,18.6,24.8,07.9,05.4,0674.9,31.0
2021-08-12T04:26:00Z,00040200,00000000,0001.63,0001.34,0000.65,0000.41,0000.41,0000.41,-000.07,0000.15,0000.44,18.5,24.8,07.9,05.4,0674.9,31.0
2021-08-12T04:27:00Z,00040200,00000000,0001.31,0000.76,0000.57,0000.19,0000.16,-000.04,0000.26,0000.63,0000.08,18.5,24.8,07.8,05.4,0674.9,31.0
2021-08-12T04:28:00Z,00040200,00000000,0001.16,0000.48,0000.81,-000.11,0000.24,0000.14,0000.54,0000.09,0000.35,18.6,24.8,07.9,05.4,0674.9,31.0
2021-08-12T04:29:00Z,00040200,00000000,0000.98,0000.82,0000.74,0000.47,0000.15,-000.04,0000.07,-000.12,0000.22,18.7,24.8,07.8,05.3,0674.9,31.0
2021-08-12T04:30:00Z,00040200,00000000,0000.91,0000.65,0000.82,0000.39,0000.45,0000.57,-000.05,0000.29,-000.41,18.7,24.9,07.8,05.3,0674.9,31.0
2021-08-12T04:31:00Z,00040200,00000000,0001.55,0000.74,0000.76,0000.01,0000.26,0000.18,0000.41,0000.53,0000.51,18.8,24.9,07.8,05.3,0674.9,31.0
2021-08-12T04:32:00Z,00040200,00000000,0001.40,0000.83,0000.90,0000.12,0000.44,0000.36,0000.32,-000.13,0000.33,18.8,25.0,07.7,05.3,0674.9,31.0
2021-08-12T04:33:00Z,00040200,00000000,0002.10,0000.69,0000.67,0000.36,0000.22,0000.09,-000.07,0000.01,-000.47,18.9,25.0,07.6,05.3,0674.9,31.0
2021-08-12T04:34:00Z,00040200,00000000,0001.06,0000.59,0000.79,-000.06,0000.36,0000.37,0000.63,0000.72,0000.28,18.8,25.0,07.7,05.3,0674.9,31.0
2021-08-12T04:35:00Z,00040200,00000000,0001.49,0000.91,0000.75,-000.11,0000.41,0000.10,-000.09,-000.35,0000.20,18.8,24.9,07.6,05.2,0674.9,31.0
2021-08-12T04:36:00Z,00040200,00000000,0002.06,0001.05,0000.43,0000.30,0000.19,0000.11,-000.03,0000.10,0000.21,18.8,24.9,07.7,05.3,0674.9,31.0
2021-08-12T04:37:00Z,00040200,00000000,0000.61,0000.78,0000.71,0000.71,0000.45,0000.45,0000.36,0000.23,0000.04,18.7,24.9,07.7,05.3,0674.9,31.0
2021-08-12T04:38:00Z,00040200,00000000,0000.98,0000.75,0000.53,0000.13,0000.12,0000.24,-000.12,0000.40,-000.24,18.7,24.9,07.7,05.3,0674.9,31.0
2021-08-12T04:39:00Z,00040200,00000000,0001.37,0000.89,0000.60,0000.84,0000.57,0000.14,0000.35,-000.06,0000.51,18.7,24.9,07.7,05.3,0674.9,31.0
2021-08-12T04:40:00Z,00040200,00000000,0001.68,0000.94,0000.72,0000.55,0000.37,0000.27,0000.29,0000.24,0000.17,18.6,24.8,07.6,05.2,0674.9,31.0
2021-08-12T04:41:00Z,00040200,00000000,0001.51,0001.19,0000.51,0000.17,0000.44,-000.00,0000.15,0000.20,0000.31,18.6,24.8,07.7,05.3,0674.9,31.0
2021-08-12T04:42:00Z,00040200,00000000,0001.35,0000.93,0000.62,0000.36,0000.14,0000.52,-000.14,0000.05,-000.02,18.6,24.8,07.7,05.3,0674.9,31.0
2021-08-12T04:43:00Z,00040200,00000000,0000.53,0000.95,0000.33,-000.07,0000.38,-000.03,0000.63,0000.83,0000.31,18.6,24.8,07.7,05.3,0674.9,31.0
2021-08-12T04:44:00Z,00040200,00000000,0001.98,0000.92,0000.66,0000.92,0000.54,-000.18,0000.21,-000.45,-000.16,18.7,24.8,07.6,05.2,0674.9,31.0
2021-08-12T04:45:00Z,00040200,00000000,0001.21,0000.94,0000.62,0000.60,0000.34,0000.32,0000.38,0000.02,0000.25,18.7,24.9,07.6,05.2,0674.9,31.0
2021-08-12T04:46:00Z,00040200,00000000,0001.05,0000.67,0000.54,0000.85,0000.26,0000.82,-000.08,0000.73,0000.11,18.8,24.9,07.7,05.3,0674.9,31.0
2021-08-12T04:47:00Z,00040200,00000000,0000.87,0000.70,0000.82,0000.80,0000.40,0000.30,0000.25,-000.27,0000.57,18.9,25.0,07.6,05.2,0674.9,31.0
2021-08-12T04:48:00Z,00040200,00000000,0001.00,0000.85,0000.58,0000.44,0000.29,0000.11,-000.13,-000.08,-000.59,18.9,25.0,07.6,05.2,0674.9,31.0
2021-08-12T04:49:00Z,00040200,00000000,0001.48,0000.89,0000.38,0000.53,0000.40,0000.11,0000.01,0000.22,0000.34,18.9,25.0,07.7,05.3,0674.9,31.0
2021-08-12T04:50:00Z,00040200,00000000,0000.96,0000.72,0000.60,0000.19,0000.55,0000.12,0000.41,0000.24,-000.42,18.8,25.0,07.6,05.2,0674.9,31.0
2021-08-12T04:51:00Z,00040200,00000000,0001.80,0000.57,0000.26,0000.43,-000.04,0000.32,-000.01,-000.11,0000.52,18.8,25.0,07.6,05.2,0674.9,31.0
2021-08-12T04:52:00Z,00040200,00000000,0001.24,0000.81,0000.63,0000.00,0000.24,-000.13,0000.25,0000.32,0000.11,18.8,25.0,07.5,05.2,0674.9,31.0
2021-08-12T04:53:00Z,00040200,00000000,0001.78,0001.10,0000.53,0000.37,0000.36,-000.00,0000.15,0000.42,-000.14,18.7,24.9,07.6,05.2,0674.9,31.0
2021-08-12T04:54:00Z,00040200,00000000,0001.36,0001.01,0000.64,-000.05,0000.48,0000.29,0000.29,0000.04,0000.39,18.7,24.9,07.6,05.2,0674.9,31.0
2021-08-12T04:55:00Z,00040200,00000000,0001.73,0000.86,0000.75,0000.20,0000.33,0000.51,0000.05,0000.15,0000.48,18.7,24.9,07.6,05.2,0674.9,31.0
2021-08-12T04:56:00Z,00040200,00000000,0001.52,0001.08,0000.21,0000.20,0000.20,-000.02,0000.54,0000.38,-000.04,18.6,24.8,07.6,05.2,0674.9,31.0
2021-08-12T04:57:00Z,00040200,40000000,,,,,,,0000.37,0000.38,0000.26,18.6,24.9,07.9,05.4,0674.9,31.0
2021-08-12T04:58:00Z,00040200,60000000,,,,,,,-000.50,-000.41,-000.23,18.3,25.0,07.6,05.0,0673.9,31.0
2021-08-12T04:59:00Z,00040200,20000000,,,,,,,0000.12,-000.31,-000.12,18.4,25.1,07.5,05.0,0673.9,31.0
